contact:dominique.lefevre@mio.osupytheas.fr, maurice.libes@osupytheas.fr, didier.mallarino@osupytheas.fr
Project:EMSO http://www.emso-fr.org/EMSO-France
Depth: 2436.0 m
Title:EMSO Ligure Ouest : Data MII capteur CSTAR
DateTime,Latitude,Longitude,Instrument_Serial,Reference_Counts,Signal_Counts,Corrected_Signal_raw_counts,Calculated_Beam_c_inverse_meters,Internal_thermistor_counts
DateTime,Latitude,Longitude,Instrument_Serial,Reference_Counts,Signal_Counts,Corrected_Signal_raw_counts,Calculated_Beam_c_inverse_meters,Internal_thermistor_counts
2022-07-22T00:01:26,42.805,6.029,CST-1368DR,4649,5098,11680,01.162,551
2022-07-22T00:04:28,42.805,6.029,CST-1368DR,4649,5101,11687,01.159,551
2022-07-22T00:07:29,42.805,6.029,CST-1368DR,4649,5084,11649,01.172,551
2022-07-22T00:10:31,42.805,6.029,CST-1368DR,4649,5104,11694,01.157,551
2022-07-22T00:13:33,42.805,6.029,CST-1368DR,4649,5104,11694,01.157,551
2022-07-22T00:16:34,42.805,6.029,CST-1368DR,4649,5100,11684,01.160,551
2022-07-22T00:19:36,42.805,6.029,CST-1368DR,4649,5101,11687,01.159,551
2022-07-22T00:22:37,42.805,6.029,CST-1368DR,4649,5100,11685,01.160,551
2022-07-22T00:25:39,42.805,6.029,CST-1368DR,4649,5096,11676,01.163,551
2022-07-22T00:28:41,42.805,6.029,CST-1368DR,4649,5101,11687,01.159,551
2022-07-22T00:31:42,42.805,6.029,CST-1368DR,4649,5086,11653,01.171,551
2022-07-22T00:34:44,42.805,6.029,CST-1368DR,4649,5094,11671,01.165,551
2022-07-22T00:37:45,42.805,6.029,CST-1368DR,4649,5102,11690,01.158,551
2022-07-22T00:40:47,42.805,6.029,CST-1368DR,4649,5099,11684,01.160,551
2022-07-22T00:43:48,42.805,6.029,CST-1368DR,4649,5090,11662,01.168,551
2022-07-22T00:46:50,42.805,6.029,CST-1368DR,4649,5096,11676,01.163,551
2022-07-22T00:49:52,42.805,6.029,CST-1368DR,4649,5090,11661,01.168,551
2022-07-22T00:52:53,42.805,6.029,CST-1368DR,4649,5087,11655,01.170,551
2022-07-22T00:55:55,42.805,6.029,CST-1368DR,4649,5089,11661,01.168,551
2022-07-22T00:58:56,42.805,6.029,CST-1368DR,4649,5094,11671,01.165,551
2022-07-22T01:01:58,42.805,6.029,CST-1368DR,4649,5078,11635,01.177,551
2022-07-22T01:04:59,42.805,6.029,CST-1368DR,4649,5081,11641,01.175,551
2022-07-22T01:08:01,42.805,6.029,CST-1368DR,4649,5095,11674,01.164,551
2022-07-22T01:11:03,42.805,6.029,CST-1368DR,4649,5091,11665,01.167,551
2022-07-22T01:14:04,42.805,6.029,CST-1368DR,4649,5091,11664,01.167,551
2022-07-22T01:17:06,42.805,6.029,CST-1368DR,4649,5107,11700,01.155,551
2022-07-22T01:20:07,42.805,6.029,CST-1368DR,4649,5097,11679,01.162,551
2022-07-22T01:23:09,42.805,6.029,CST-1368DR,4649,5085,11650,01.172,551
2022-07-22T01:26:11,42.805,6.029,CST-1368DR,4649,5100,11686,01.160,551
2022-07-22T01:29:12,42.805,6.029,CST-1368DR,4649,5087,11656,01.170,551
2022-07-22T01:32:14,42.805,6.029,CST-1368DR,4649,5095,11675,01.163,551
2022-07-22T01:35:15,42.805,6.029,CST-1368DR,4648,5091,11666,01.166,551
2022-07-22T01:38:17,42.805,6.029,CST-1368DR,4649,5091,11665,01.167,551
2022-07-22T01:41:18,42.805,6.029,CST-1368DR,4649,5085,11651,01.172,551
2022-07-22T01:44:20,42.805,6.029,CST-1368DR,4649,5095,11674,01.164,551
2022-07-22T01:47:22,42.805,6.029,CST-1368DR,4649,5097,11678,01.162,551
2022-07-22T01:50:23,42.805,6.029,CST-1368DR,4649,5087,11656,01.170,551
2022-07-22T01:53:25,42.805,6.029,CST-1368DR,4649,5097,11678,01.162,551
2022-07-22T01:56:26,42.805,6.029,CST-1368DR,4649,5093,11669,01.165,551
2022-07-22T01:59:28,42.805,6.029,CST-1368DR,4649,5098,11681,01.161,551
2022-07-22T02:02:29,42.805,6.029,CST-1368DR,4649,5097,11678,01.162,551
2022-07-22T02:05:31,42.805,6.029,CST-1368DR,4649,5095,11674,01.164,551
2022-07-22T02:08:33,42.805,6.029,CST-1368DR,4649,5091,11664,01.167,551
2022-07-22T02:11:34,42.805,6.029,CST-1368DR,4649,5093,11670,01.165,551
2022-07-22T02:14:36,42.805,6.029,CST-1368DR,4649,5097,11678,01.162,551
2022-07-22T02:17:37,42.805,6.029,CST-1368DR,4648,5090,11666,01.166,551
2022-07-22T02:20:39,42.805,6.029,CST-1368DR,4648,5097,11682,01.161,551
2022-07-22T02:23:41,42.805,6.029,CST-1368DR,4649,5089,11661,01.168,551
2022-07-22T02:26:42,42.805,6.029,CST-1368DR,4648,5087,11657,01.170,551
2022-07-22T02:29:44,42.805,6.029,CST-1368DR,4648,5091,11668,01.166,551
2022-07-22T02:32:45,42.805,6.029,CST-1368DR,4648,5081,11645,01.174,551
2022-07-22T02:35:47,42.805,6.029,CST-1368DR,4648,5086,11655,01.170,551
2022-07-22T02:38:48,42.805,6.029,CST-1368DR,4648,5092,11670,01.165,551
2022-07-22T02:41:50,42.805,6.029,CST-1368DR,4648,5089,11663,01.167,551
2022-07-22T02:44:52,42.805,6.029,CST-1368DR,4648,5085,11654,01.171,551
2022-07-22T02:47:53,42.805,6.029,CST-1368DR,4648,5084,11651,01.172,551
2022-07-22T02:50:55,42.805,6.029,CST-1368DR,4648,5088,11661,01.168,551
2022-07-22T02:53:56,42.805,6.029,CST-1368DR,4649,5094,11672,01.164,551
2022-07-22T02:56:58,42.805,6.029,CST-1368DR,4649,5101,11688,01.159,551
2022-07-22T03:00:00,42.805,6.029,CST-1368DR,4649,5114,11717,01.149,551
2022-07-22T03:03:01,42.805,6.029,CST-1368DR,4649,5115,11719,01.148,551
2022-07-22T03:06:03,42.805,6.029,CST-1368DR,4648,5105,11698,01.156,551
2022-07-22T03:09:04,42.805,6.029,CST-1368DR,4648,5108,11706,01.153,551
2022-07-22T03:12:06,42.805,6.029,CST-1368DR,4649,5100,11684,01.160,551
2022-07-22T03:15:07,42.805,6.029,CST-1368DR,4649,5092,11667,01.166,551
2022-07-22T03:18:09,42.805,6.029,CST-1368DR,4648,5084,11652,01.171,551
2022-07-22T03:21:11,42.805,6.029,CST-1368DR,4649,5098,11682,01.161,551
2022-07-22T03:24:12,42.805,6.029,CST-1368DR,4649,5115,11719,01.148,551
2022-07-22T03:27:14,42.805,6.029,CST-1368DR,4649,5108,11704,01.153,551
2022-07-22T03:30:15,42.805,6.029,CST-1368DR,4648,5112,11716,01.149,551
2022-07-22T03:33:17,42.805,6.029,CST-1368DR,4648,5101,11690,01.158,551
2022-07-22T03:36:18,42.805,6.029,CST-1368DR,4648,5106,11702,01.154,551
2022-07-22T03:39:20,42.805,6.029,CST-1368DR,4648,5108,11705,01.153,551
2022-07-22T03:42:22,42.805,6.029,CST-1368DR,4649,5116,11722,01.147,551
2022-07-22T03:45:23,42.805,6.029,CST-1368DR,4648,5109,11708,01.152,551
2022-07-22T03:48:25,42.805,6.029,CST-1368DR,4648,5095,11676,01.163,551
2022-07-22T03:51:26,42.805,6.029,CST-1368DR,4648,5110,11710,01.151,551
2022-07-22T03:54:28,42.805,6.029,CST-1368DR,4648,5108,11706,01.153,551
2022-07-22T03:57:30,42.805,6.029,CST-1368DR,4648,5111,11712,01.151,551
2022-07-22T04:00:31,42.805,6.029,CST-1368DR,4648,5101,11690,01.158,551
2022-07-22T04:03:33,42.805,6.029,CST-1368DR,4648,5108,11707,01.152,551
2022-07-22T04:06:34,42.805,6.029,CST-1368DR,4648,5106,11701,01.154,551
2022-07-22T04:09:36,42.805,6.029,CST-1368DR,4648,5110,11711,01.151,551
2022-07-22T04:12:37,42.805,6.029,CST-1368DR,4648,5099,11685,01.160,551
2022-07-22T04:15:39,42.805,6.029,CST-1368DR,4648,5098,11683,01.161,551
2022-07-22T04:18:41,42.805,6.029,CST-1368DR,4648,5107,11703,01.154,551
2022-07-22T04:21:42,42.805,6.029,CST-1368DR,4648,5100,11687,01.159,551
2022-07-22T04:24:44,42.805,6.029,CST-1368DR,4648,5100,11689,01.159,551
2022-07-22T04:27:45,42.805,6.029,CST-1368DR,4648,5098,11683,01.161,551
2022-07-22T04:30:47,42.805,6.029,CST-1368DR,4648,5108,11706,01.153,551
2022-07-22T04:33:49,42.805,6.029,CST-1368DR,4648,5097,11680,01.162,551
2022-07-22T04:36:50,42.805,6.029,CST-1368DR,4648,5100,11687,01.159,551
2022-07-22T04:39:52,42.805,6.029,CST-1368DR,4648,5105,11699,01.155,551
2022-07-22T04:42:53,42.805,6.029,CST-1368DR,4648,5104,11696,01.156,551
2022-07-22T04:45:55,42.805,6.029,CST-1368DR,4648,5105,11699,01.155,551
2022-07-22T04:48:56,42.805,6.029,CST-1368DR,4648,5105,11700,01.155,551
2022-07-22T04:51:58,42.805,6.029,CST-1368DR,4648,5101,11689,01.159,551
2022-07-22T04:55:00,42.805,6.029,CST-1368DR,4648,5099,11686,01.160,551
2022-07-22T04:58:01,42.805,6.029,CST-1368DR,4648,5090,11664,01.167,551
2022-07-22T05:01:03,42.805,6.029,CST-1368DR,4648,5101,11691,01.158,551
2022-07-22T05:04:04,42.805,6.029,CST-1368DR,4648,5110,11711,01.151,551
2022-07-22T05:07:06,42.805,6.029,CST-1368DR,4648,5105,11700,01.155,551
2022-07-22T05:10:07,42.805,6.029,CST-1368DR,4648,5104,11697,01.156,551
2022-07-22T05:13:09,42.805,6.029,CST-1368DR,4648,5106,11702,01.154,551
2022-07-22T05:16:11,42.805,6.029,CST-1368DR,4648,5103,11694,01.157,551
2022-07-22T05:19:12,42.805,6.029,CST-1368DR,4648,5097,11681,01.161,551
2022-07-22T05:22:14,42.805,6.029,CST-1368DR,4648,5107,11704,01.153,551
2022-07-22T05:25:15,42.805,6.029,CST-1368DR,4648,5108,11705,01.153,551
2022-07-22T05:28:17,42.805,6.029,CST-1368DR,4648,5100,11687,01.159,551
2022-07-22T05:31:19,42.805,6.029,CST-1368DR,4648,5107,11704,01.153,551
2022-07-22T05:34:20,42.805,6.029,CST-1368DR,4648,5094,11675,01.163,551
2022-07-22T05:37:22,42.805,6.029,CST-1368DR,4648,5105,11699,01.155,551
2022-07-22T05:40:23,42.805,6.029,CST-1368DR,4648,5102,11692,01.158,551
2022-07-22T05:43:25,42.805,6.029,CST-1368DR,4648,5100,11687,01.159,551
2022-07-22T05:46:26,42.805,6.029,CST-1368DR,4648,5103,11694,01.157,551
2022-07-22T05:49:28,42.805,6.029,CST-1368DR,4648,5105,11698,01.156,551
2022-07-22T05:52:30,42.805,6.029,CST-1368DR,4648,5084,11651,01.172,551
2022-07-22T05:55:31,42.805,6.029,CST-1368DR,4648,5090,11664,01.167,551
2022-07-22T05:58:33,42.805,6.029,CST-1368DR,4648,5092,11668,01.166,551
2022-07-22T06:01:34,42.805,6.029,CST-1368DR,4648,5087,11658,01.169,551
2022-07-22T06:04:36,42.805,6.029,CST-1368DR,4648,5082,11647,01.173,551
2022-07-22T06:07:37,42.805,6.029,CST-1368DR,4648,5077,11635,01.177,551
2022-07-22T06:10:39,42.805,6.029,CST-1368DR,4648,5076,11633,01.178,551
2022-07-22T06:13:41,42.805,6.029,CST-1368DR,4648,5081,11644,01.174,551
2022-07-22T06:16:42,42.805,6.029,CST-1368DR,4648,5091,11667,01.166,551
2022-07-22T06:19:44,42.805,6.029,CST-1368DR,4648,5077,11635,01.177,551
2022-07-22T06:22:45,42.805,6.029,CST-1368DR,4648,5096,11679,01.162,551
2022-07-22T06:25:47,42.805,6.029,CST-1368DR,4648,5100,11687,01.159,551
2022-07-22T06:28:49,42.805,6.029,CST-1368DR,4648,5093,11672,01.164,551
2022-07-22T06:31:50,42.805,6.029,CST-1368DR,4648,5099,11685,01.160,551
2022-07-22T06:34:52,42.805,6.029,CST-1368DR,4648,5099,11685,01.160,551
2022-07-22T06:37:53,42.805,6.029,CST-1368DR,4648,5088,11660,01.169,551
2022-07-22T06:40:55,42.805,6.029,CST-1368DR,4648,5081,11643,01.174,551
2022-07-22T06:43:56,42.805,6.029,CST-1368DR,4648,5076,11633,01.178,551
2022-07-22T06:46:58,42.805,6.029,CST-1368DR,4648,5083,11648,01.173,551
2022-07-22T06:50:00,42.805,6.029,CST-1368DR,4648,5067,11612,01.185,551
2022-07-22T06:53:01,42.805,6.029,CST-1368DR,4648,5088,11660,01.169,551
2022-07-22T06:56:03,42.805,6.029,CST-1368DR,4648,5080,11642,01.175,551
2022-07-22T06:59:04,42.805,6.029,CST-1368DR,4648,5084,11651,01.172,551
2022-07-22T07:02:06,42.805,6.029,CST-1368DR,4648,5092,11668,01.166,551
2022-07-22T07:05:07,42.805,6.029,CST-1368DR,4648,5085,11654,01.171,551
2022-07-22T07:08:09,42.805,6.029,CST-1368DR,4648,5089,11663,01.167,551
2022-07-22T07:11:11,42.805,6.029,CST-1368DR,4648,5095,11677,01.163,551
2022-07-22T07:14:12,42.805,6.029,CST-1368DR,4648,5094,11675,01.163,551
2022-07-22T07:17:14,42.805,6.029,CST-1368DR,4648,5081,11644,01.174,551
2022-07-22T07:20:15,42.805,6.029,CST-1368DR,4648,5088,11661,01.168,551
2022-07-22T07:23:17,42.805,6.029,CST-1368DR,4648,5082,11647,01.173,551
2022-07-22T07:26:19,42.805,6.029,CST-1368DR,4648,5092,11669,01.165,551
2022-07-22T07:29:20,42.805,6.029,CST-1368DR,4648,5082,11647,01.173,551
2022-07-22T07:32:22,42.805,6.029,CST-1368DR,4648,5086,11656,01.170,551
2022-07-22T07:35:23,42.805,6.029,CST-1368DR,4648,5097,11682,01.161,551
2022-07-22T07:38:25,42.805,6.029,CST-1368DR,4648,5092,11669,01.165,551
2022-07-22T07:41:26,42.805,6.029,CST-1368DR,4648,5087,11657,01.170,551
2022-07-22T07:44:28,42.805,6.029,CST-1368DR,4648,5086,11656,01.170,551
2022-07-22T07:47:30,42.805,6.029,CST-1368DR,4648,5084,11652,01.171,551
2022-07-22T07:50:31,42.805,6.029,CST-1368DR,4648,5078,11638,01.176,551
2022-07-22T07:53:33,42.805,6.029,CST-1368DR,4648,5086,11656,01.170,551
2022-07-22T07:56:34,42.805,6.029,CST-1368DR,4648,5083,11650,01.172,551
2022-07-22T07:59:36,42.805,6.029,CST-1368DR,4648,5080,11642,01.175,551
2022-07-22T08:02:38,42.805,6.029,CST-1368DR,4648,5088,11661,01.168,551
2022-07-22T08:05:39,42.805,6.029,CST-1368DR,4648,5079,11639,01.176,551
2022-07-22T08:08:41,42.805,6.029,CST-1368DR,4648,5091,11667,01.166,551
2022-07-22T08:11:42,42.805,6.029,CST-1368DR,4648,5084,11651,01.172,551
2022-07-22T08:14:44,42.805,6.029,CST-1368DR,4648,5082,11647,01.173,551
2022-07-22T08:17:45,42.805,6.029,CST-1368DR,4648,5089,11663,01.167,551
2022-07-22T08:20:47,42.805,6.029,CST-1368DR,4648,5090,11666,01.166,551
2022-07-22T08:23:49,42.805,6.029,CST-1368DR,4648,5084,11650,01.172,551
2022-07-22T08:26:50,42.805,6.029,CST-1368DR,4648,5077,11634,01.177,551
2022-07-22T08:29:52,42.805,6.029,CST-1368DR,4648,5075,11630,01.179,551
2022-07-22T08:32:53,42.805,6.029,CST-1368DR,4648,5077,11634,01.177,551
2022-07-22T08:35:55,42.805,6.029,CST-1368DR,4648,5095,11677,01.163,551
2022-07-22T08:38:56,42.805,6.029,CST-1368DR,4648,5085,11653,01.171,551
2022-07-22T08:41:58,42.805,6.029,CST-1368DR,4648,5073,11626,01.180,551
2022-07-22T08:45:00,42.805,6.029,CST-1368DR,4648,5080,11641,01.175,551
2022-07-22T08:48:01,42.805,6.029,CST-1368DR,4648,5089,11662,01.168,551
2022-07-22T08:51:03,42.805,6.029,CST-1368DR,4648,5084,11651,01.172,551
2022-07-22T08:54:04,42.805,6.029,CST-1368DR,4648,5076,11633,01.178,551
2022-07-22T08:57:06,42.805,6.029,CST-1368DR,4648,5090,11666,01.166,551
2022-07-22T09:00:08,42.805,6.029,CST-1368DR,4648,5080,11642,01.175,551
2022-07-22T09:03:09,42.805,6.029,CST-1368DR,4648,5090,11664,01.167,551
2022-07-22T09:06:11,42.805,6.029,CST-1368DR,4648,5085,11654,01.171,551
2022-07-22T09:09:12,42.805,6.029,CST-1368DR,4648,5088,11660,01.169,551
2022-07-22T09:12:14,42.805,6.029,CST-1368DR,4648,5078,11636,01.177,551
2022-07-22T09:15:15,42.805,6.029,CST-1368DR,4648,5080,11643,01.174,551
2022-07-22T09:18:17,42.805,6.029,CST-1368DR,4648,5088,11660,01.169,551
2022-07-22T09:21:19,42.805,6.029,CST-1368DR,4648,5081,11643,01.174,551
2022-07-22T09:24:20,42.805,6.029,CST-1368DR,4648,5084,11650,01.172,551
2022-07-22T09:27:22,42.805,6.029,CST-1368DR,4648,5092,11668,01.166,551
2022-07-22T09:30:23,42.805,6.029,CST-1368DR,4648,5095,11677,01.163,551
2022-07-22T09:33:25,42.805,6.029,CST-1368DR,4648,5082,11646,01.173,551
2022-07-22T09:36:26,42.805,6.029,CST-1368DR,4648,5083,11650,01.172,551
2022-07-22T09:39:28,42.805,6.029,CST-1368DR,4648,5084,11650,01.172,551
2022-07-22T09:42:30,42.805,6.029,CST-1368DR,4648,5090,11665,01.167,551
2022-07-22T09:45:31,42.805,6.029,CST-1368DR,4648,5082,11646,01.173,551
2022-07-22T09:48:33,42.805,6.029,CST-1368DR,4648,5081,11644,01.174,551
2022-07-22T09:51:34,42.805,6.029,CST-1368DR,4648,5082,11646,01.173,551
2022-07-22T09:54:36,42.805,6.029,CST-1368DR,4648,5082,11647,01.173,551
2022-07-22T09:57:38,42.805,6.029,CST-1368DR,4648,5080,11642,01.175,551
2022-07-22T10:00:39,42.805,6.029,CST-1368DR,4648,5081,11644,01.174,551
2022-07-22T10:03:41,42.805,6.029,CST-1368DR,4648,5087,11658,01.169,551
2022-07-22T10:06:42,42.805,6.029,CST-1368DR,4648,5082,11646,01.173,551
2022-07-22T10:09:44,42.805,6.029,CST-1368DR,4648,5086,11656,01.170,551
2022-07-22T10:12:45,42.805,6.029,CST-1368DR,4648,5083,11648,01.173,551
2022-07-22T10:15:47,42.805,6.029,CST-1368DR,4648,5087,11658,01.169,551
2022-07-22T10:18:49,42.805,6.029,CST-1368DR,4648,5083,11649,01.172,551
2022-07-22T10:21:50,42.805,6.029,CST-1368DR,4648,5081,11643,01.174,551
2022-07-22T10:24:52,42.805,6.029,CST-1368DR,4648,5082,11646,01.173,551
2022-07-22T10:27:53,42.805,6.029,CST-1368DR,4648,5078,11637,01.176,551
2022-07-22T10:30:55,42.805,6.029,CST-1368DR,4648,5082,11646,01.173,551
2022-07-22T10:33:56,42.805,6.029,CST-1368DR,4648,5082,11646,01.173,551
2022-07-22T10:36:58,42.805,6.029,CST-1368DR,4648,5065,11607,01.187,551
2022-07-22T10:40:00,42.805,6.029,CST-1368DR,4648,5070,11620,01.182,551
2022-07-22T10:43:01,42.805,6.029,CST-1368DR,4648,5067,11611,01.185,551
2022-07-22T10:46:03,42.805,6.029,CST-1368DR,4648,5069,11617,01.183,551
2022-07-22T10:49:04,42.805,6.029,CST-1368DR,4648,5076,11632,01.178,551
2022-07-22T10:52:06,42.805,6.029,CST-1368DR,4648,5067,11612,01.185,551
2022-07-22T10:55:08,42.805,6.029,CST-1368DR,4648,5070,11618,01.183,551
2022-07-22T10:58:09,42.805,6.029,CST-1368DR,4648,5065,11608,01.186,551
2022-07-22T11:01:11,42.805,6.029,CST-1368DR,4648,5070,11619,01.183,551
2022-07-22T11:04:12,42.805,6.029,CST-1368DR,4648,5068,11614,01.184,551
2022-07-22T11:07:14,42.805,6.029,CST-1368DR,4648,5071,11620,01.182,551
2022-07-22T11:10:15,42.805,6.029,CST-1368DR,4648,5077,11634,01.177,551
2022-07-22T11:13:17,42.805,6.029,CST-1368DR,4648,5063,11603,01.188,551
2022-07-22T11:16:19,42.805,6.029,CST-1368DR,4648,5081,11644,01.174,551
2022-07-22T11:19:20,42.805,6.029,CST-1368DR,4648,5076,11632,01.178,551
2022-07-22T11:22:22,42.805,6.029,CST-1368DR,4648,5060,11595,01.191,551
2022-07-22T11:25:23,42.805,6.029,CST-1368DR,4648,5071,11621,01.182,551
2022-07-22T11:28:25,42.805,6.029,CST-1368DR,4648,5080,11641,01.175,551
2022-07-22T11:31:27,42.805,6.029,CST-1368DR,4648,5083,11649,01.172,551
2022-07-22T11:34:28,42.805,6.029,CST-1368DR,4648,5071,11622,01.182,551
2022-07-22T11:37:30,42.805,6.029,CST-1368DR,4648,5084,11651,01.172,551
2022-07-22T11:40:31,42.805,6.029,CST-1368DR,4648,5080,11643,01.174,551
2022-07-22T11:43:33,42.805,6.029,CST-1368DR,4648,5067,11612,01.185,551
2022-07-22T11:46:34,42.805,6.029,CST-1368DR,4648,5084,11652,01.171,551
2022-07-22T11:49:36,42.805,6.029,CST-1368DR,4648,5079,11639,01.176,551
2022-07-22T11:52:38,42.805,6.029,CST-1368DR,4648,5068,11613,01.185,551
2022-07-22T11:55:39,42.805,6.029,CST-1368DR,4648,5080,11643,01.174,551
2022-07-22T11:58:41,42.805,6.029,CST-1368DR,4648,5083,11650,01.172,551
2022-07-22T12:01:42,42.805,6.029,CST-1368DR,4648,5073,11625,01.181,551
2022-07-22T12:04:44,42.805,6.029,CST-1368DR,4648,5084,11652,01.171,551
2022-07-22T12:07:45,42.805,6.029,CST-1368DR,4648,5083,11648,01.173,551
2022-07-22T12:10:47,42.805,6.029,CST-1368DR,4648,5085,11654,01.171,551
2022-07-22T12:13:49,42.805,6.029,CST-1368DR,4648,5077,11635,01.177,551
2022-07-22T12:16:50,42.805,6.029,CST-1368DR,4648,5085,11652,01.171,551
2022-07-22T12:19:52,42.805,6.029,CST-1368DR,4648,5072,11623,01.181,551
2022-07-22T12:22:53,42.805,6.029,CST-1368DR,4648,5075,11631,01.178,551
2022-07-22T12:25:55,42.805,6.029,CST-1368DR,4648,5087,11659,01.169,551
2022-07-22T12:28:57,42.805,6.029,CST-1368DR,4648,5077,11635,01.177,551
2022-07-22T12:31:58,42.805,6.029,CST-1368DR,4648,5068,11615,01.184,551
2022-07-22T12:35:00,42.805,6.029,CST-1368DR,4648,5080,11641,01.175,551
2022-07-22T12:38:01,42.805,6.029,CST-1368DR,4648,5083,11650,01.172,551
2022-07-22T12:41:03,42.805,6.029,CST-1368DR,4648,5074,11628,01.180,551
2022-07-22T12:44:04,42.805,6.029,CST-1368DR,4648,5069,11617,01.183,551
2022-07-22T12:47:06,42.805,6.029,CST-1368DR,4648,5079,11640,01.175,551
2022-07-22T12:50:08,42.805,6.029,CST-1368DR,4648,5068,11615,01.184,551
2022-07-22T12:53:09,42.805,6.029,CST-1368DR,4648,5073,11627,01.180,550
2022-07-22T12:56:11,42.805,6.029,CST-1368DR,4648,5080,11642,01.175,551
2022-07-22T12:59:12,42.805,6.029,CST-1368DR,4648,5081,11643,01.174,551
2022-07-22T13:02:14,42.805,6.029,CST-1368DR,4648,5066,11611,01.185,551
2022-07-22T13:05:15,42.805,6.029,CST-1368DR,4648,5078,11638,01.176,551
2022-07-22T13:08:17,42.805,6.029,CST-1368DR,4648,5081,11644,01.174,551
2022-07-22T13:11:19,42.805,6.029,CST-1368DR,4648,5066,11609,01.186,551
2022-07-22T13:14:20,42.805,6.029,CST-1368DR,4648,5073,11626,01.180,551
2022-07-22T13:17:22,42.805,6.029,CST-1368DR,4648,5077,11635,01.177,551
2022-07-22T13:20:23,42.805,6.029,CST-1368DR,4648,5074,11627,01.180,551
2022-07-22T13:23:25,42.805,6.029,CST-1368DR,4648,5080,11641,01.175,551
2022-07-22T13:26:27,42.805,6.029,CST-1368DR,4648,5080,11642,01.175,551
2022-07-22T13:29:28,42.805,6.029,CST-1368DR,4648,5076,11632,01.178,551
2022-07-22T13:32:30,42.805,6.029,CST-1368DR,4648,5078,11637,01.176,551
2022-07-22T13:35:31,42.805,6.029,CST-1368DR,4648,5083,11648,01.173,551
2022-07-22T13:38:33,42.805,6.029,CST-1368DR,4648,5073,11626,01.180,551
2022-07-22T13:41:34,42.805,6.029,CST-1368DR,4648,5073,11626,01.180,551
2022-07-22T13:44:36,42.805,6.029,CST-1368DR,4648,5067,11612,01.185,551
2022-07-22T13:47:38,42.805,6.029,CST-1368DR,4648,5061,11597,01.190,551
2022-07-22T13:50:39,42.805,6.029,CST-1368DR,4648,5066,11610,01.186,551
2022-07-22T13:53:41,42.805,6.029,CST-1368DR,4648,5051,11575,01.198,551
2022-07-22T13:56:42,42.805,6.029,CST-1368DR,4648,5030,11527,01.214,551
2022-07-22T13:59:44,42.805,6.029,CST-1368DR,4648,5035,11540,01.210,551
2022-07-22T14:02:45,42.805,6.029,CST-1368DR,4648,5061,11598,01.190,551
2022-07-22T14:05:47,42.805,6.029,CST-1368DR,4648,5070,11619,01.183,551
2022-07-22T14:08:49,42.805,6.029,CST-1368DR,4648,5074,11628,01.180,551
2022-07-22T14:11:50,42.805,6.029,CST-1368DR,4648,5075,11630,01.179,551
2022-07-22T14:14:52,42.805,6.029,CST-1368DR,4648,5068,11614,01.184,551
2022-07-22T14:17:53,42.805,6.029,CST-1368DR,4648,5065,11607,01.187,551
2022-07-22T14:20:55,42.805,6.029,CST-1368DR,4648,5072,11623,01.181,551
2022-07-22T14:23:57,42.805,6.029,CST-1368DR,4648,5064,11605,01.187,551
2022-07-22T14:26:58,42.805,6.029,CST-1368DR,4648,5080,11642,01.175,551
2022-07-22T14:30:00,42.805,6.029,CST-1368DR,4648,5073,11626,01.180,551
2022-07-22T14:33:01,42.805,6.029,CST-1368DR,4648,5088,11661,01.168,551
2022-07-22T14:36:03,42.805,6.029,CST-1368DR,4648,5079,11639,01.176,551
2022-07-22T14:39:04,42.805,6.029,CST-1368DR,4648,5073,11625,01.181,551
2022-07-22T14:42:06,42.805,6.029,CST-1368DR,4648,5078,11637,01.176,551
2022-07-22T14:45:08,42.805,6.029,CST-1368DR,4648,5078,11638,01.176,551
2022-07-22T14:48:09,42.805,6.029,CST-1368DR,4648,5077,11635,01.177,551
2022-07-22T14:51:11,42.805,6.029,CST-1368DR,4648,5080,11642,01.175,551
2022-07-22T14:54:12,42.805,6.029,CST-1368DR,4648,5070,11619,01.183,551
2022-07-22T14:57:14,42.805,6.029,CST-1368DR,4648,5060,11596,01.191,551
2022-07-22T15:00:15,42.805,6.029,CST-1368DR,4648,5066,11611,01.185,551
2022-07-22T15:03:17,42.805,6.029,CST-1368DR,4648,5068,11614,01.184,551
2022-07-22T15:06:19,42.805,6.029,CST-1368DR,4648,5067,11611,01.185,551
2022-07-22T15:09:20,42.805,6.029,CST-1368DR,4648,5070,11619,01.183,551
2022-07-22T15:12:22,42.805,6.029,CST-1368DR,4648,5074,11627,01.180,551
2022-07-22T15:15:23,42.805,6.029,CST-1368DR,4648,5076,11634,01.177,551
2022-07-22T15:18:25,42.805,6.029,CST-1368DR,4648,5080,11643,01.174,551
2022-07-22T15:21:27,42.805,6.029,CST-1368DR,4648,5076,11632,01.178,551
2022-07-22T15:24:28,42.805,6.029,CST-1368DR,4648,5070,11619,01.183,551
2022-07-22T15:27:30,42.805,6.029,CST-1368DR,4648,5066,11609,01.186,551
2022-07-22T15:30:31,42.805,6.029,CST-1368DR,4648,5072,11623,01.181,551
2022-07-22T15:33:33,42.805,6.029,CST-1368DR,4648,5066,11611,01.185,551
2022-07-22T15:36:34,42.805,6.029,CST-1368DR,4648,5063,11602,01.188,551
2022-07-22T15:39:36,42.805,6.029,CST-1368DR,4648,5067,11612,01.185,551
2022-07-22T15:42:38,42.805,6.029,CST-1368DR,4648,5077,11636,01.177,551
2022-07-22T15:45:39,42.805,6.029,CST-1368DR,4648,5058,11591,01.192,551
2022-07-22T15:48:41,42.805,6.029,CST-1368DR,4648,5080,11642,01.175,551
2022-07-22T15:51:42,42.805,6.029,CST-1368DR,4648,5085,11654,01.171,551
2022-07-22T15:54:44,42.805,6.029,CST-1368DR,4648,5071,11621,01.182,551
2022-07-22T15:57:45,42.805,6.029,CST-1368DR,4648,5068,11615,01.184,551
2022-07-22T16:00:47,42.805,6.029,CST-1368DR,4648,5075,11630,01.179,551
2022-07-22T16:03:49,42.805,6.029,CST-1368DR,4648,5068,11615,01.184,551
2022-07-22T16:06:50,42.805,6.029,CST-1368DR,4648,5075,11630,01.179,551
2022-07-22T16:09:52,42.805,6.029,CST-1368DR,4648,5067,11612,01.185,551
2022-07-22T16:12:53,42.805,6.029,CST-1368DR,4648,5064,11606,01.187,551
2022-07-22T16:15:55,42.805,6.029,CST-1368DR,4648,5066,11609,01.186,551
2022-07-22T16:18:57,42.805,6.029,CST-1368DR,4648,5064,11605,01.187,551
2022-07-22T16:21:58,42.805,6.029,CST-1368DR,4647,5060,11599,01.190,551
2022-07-22T16:25:00,42.805,6.029,CST-1368DR,4648,5084,11651,01.172,551
2022-07-22T16:28:01,42.805,6.029,CST-1368DR,4648,5066,11611,01.185,551
2022-07-22T16:31:03,42.805,6.029,CST-1368DR,4648,5079,11639,01.176,551
2022-07-22T16:34:04,42.805,6.029,CST-1368DR,4648,5080,11642,01.175,551
2022-07-22T16:37:06,42.805,6.029,CST-1368DR,4648,5084,11651,01.172,551